TimeEST,TemperatureF,Dew PointF,Humidity,Sea Level PressureIn,VisibilityMPH,Wind Direction,Wind SpeedMPH,Gust SpeedMPH,PrecipitationIn,Events,Conditions,WindDirDegrees,DateUTC
12:10 AM,44.6,44.6,100,29.99,0.5,South,5.8,-,N/A,Fog,Fog,190,2013-01-14 05:10:00
12:23 AM,46.4,44.6,93,29.99,0.8,South,4.6,-,N/A,,Mist,190,2013-01-14 05:23:00
12:25 AM,46.4,44.6,93,29.99,0.8,South,6.9,-,N/A,,Mist,180,2013-01-14 05:25:00
12:26 AM,46.4,44.6,93,29.99,0.8,South,5.8,-,N/A,,Mist,180,2013-01-14 05:26:00
12:28 AM,46.4,46.4,100,29.99,0.8,South,6.9,-,N/A,,Mist,180,2013-01-14 05:28:00
12:29 AM,46.4,46.4,100,29.99,1.0,South,5.8,-,N/A,,Mist,180,2013-01-14 05:29:00
12:32 AM,46.4,46.4,100,29.99,1.2,South,5.8,-,N/A,,Overcast,170,2013-01-14 05:32:00
12:36 AM,46.4,44.6,93,29.99,1.2,South,5.8,-,N/A,,Overcast,180,2013-01-14 05:36:00
12:38 AM,46.4,46.4,100,29.99,1.2,South,6.9,-,N/A,,Overcast,190,2013-01-14 05:38:00
12:39 AM,46.4,46.4,100,29.99,1.5,South,6.9,-,N/A,,Overcast,190,2013-01-14 05:39:00
12:42 AM,46.4,46.4,100,29.99,1.8,South,6.9,-,N/A,,Overcast,190,2013-01-14 05:42:00
12:48 AM,46.4,46.4,100,29.99,1.5,South,5.8,-,N/A,,Overcast,190,2013-01-14 05:48:00
12:50 AM,46.4,46.4,100,29.99,1.2,South,5.8,-,N/A,,Overcast,190,2013-01-14 05:50:00
12:52 AM,46.4,46.4,100,29.99,1.2,South,5.8,-,N/A,,Overcast,180,2013-01-14 05:52:00
12:53 AM,46.4,46.4,100,29.99,1.0,South,5.8,-,N/A,,Mist,180,2013-01-14 05:53:00
12:55 AM,45.9,45.7,99,29.99,1.0,South,5.8,-,N/A,,Mist,190,2013-01-14 05:55:00
12:56 AM,46.4,46.4,100,29.99,1.0,South,5.8,-,N/A,,Mist,190,2013-01-14 05:56:00
12:57 AM,46.4,46.4,100,29.99,1.2,South,5.8,-,N/A,,Overcast,190,2013-01-14 05:57:00
1:01 AM,46.4,46.4,100,29.99,1.5,South,6.9,-,N/A,,Overcast,190,2013-01-14 06:01:00
1:07 AM,46.4,46.4,100,30.00,1.2,South,5.8,-,N/A,,Overcast,190,2013-01-14 06:07:00
1:09 AM,46.4,46.4,100,30.00,1.0,SSW,4.6,-,N/A,,Mist,200,2013-01-14 06:09:00
1:11 AM,46.4,46.4,100,29.99,0.8,SSW,3.5,-,N/A,,Mist,200,2013-01-14 06:11:00
1:12 AM,46.4,46.4,100,29.99,0.8,SSW,3.5,-,N/A,,Mist,200,2013-01-14 06:12:00
1:13 AM,46.4,46.4,100,29.99,0.8,SSW,3.5,-,N/A,,Mist,200,2013-01-14 06:13:00
1:15 AM,46.4,46.4,100,29.99,0.5,SSW,3.5,-,N/A,Fog,Fog,210,2013-01-14 06:15:00
1:23 AM,46.4,46.4,100,29.99,0.5,SSW,3.5,-,N/A,Fog,Fog,200,2013-01-14 06:23:00
1:27 AM,46.4,44.6,93,29.99,0.5,Calm,Calm,-,N/A,Fog,Fog,0,2013-01-14 06:27:00
1:32 AM,44.6,44.6,100,29.99,0.2,SW,3.5,-,N/A,Fog,Fog,220,2013-01-14 06:32:00
1:41 AM,44.6,44.6,100,30.00,0.2,SW,4.6,-,N/A,Fog,Fog,220,2013-01-14 06:41:00
1:55 AM,44.8,44.6,99,30.01,0.2,SW,5.8,-,N/A,Fog,Fog,220,2013-01-14 06:55:00
1:57 AM,44.6,44.6,100,30.01,0.2,SW,5.8,-,N/A,Fog,Fog,220,2013-01-14 06:57:00
2:03 AM,44.6,44.6,100,30.01,0.2,SSW,4.6,-,N/A,Fog,Fog,210,2013-01-14 07:03:00
2:04 AM,44.6,44.6,100,30.01,0.2,SSW,4.6,-,N/A,Fog,Fog,200,2013-01-14 07:04:00
2:08 AM,44.6,44.6,100,30.01,0.2,South,4.6,-,N/A,Fog,Fog,190,2013-01-14 07:08:00
2:10 AM,44.6,44.6,100,30.00,0.5,South,4.6,-,N/A,Fog,Fog,190,2013-01-14 07:10:00
2:17 AM,46.4,44.6,93,30.00,0.5,South,6.9,-,N/A,Fog,Fog,190,2013-01-14 07:17:00
2:26 AM,46.4,44.6,93,29.99,0.8,South,6.9,-,N/A,,Mist,180,2013-01-14 07:26:00
2:33 AM,46.4,46.4,100,29.99,0.8,South,8.1,-,N/A,,Mist,180,2013-01-14 07:33:00
2:40 AM,46.4,46.4,100,29.99,1.0,South,6.9,-,N/A,,Mist,180,2013-01-14 07:40:00
2:41 AM,46.4,46.4,100,29.99,1.0,South,8.1,-,N/A,,Mist,190,2013-01-14 07:41:00
2:42 AM,46.4,46.4,100,29.99,1.0,South,8.1,-,N/A,,Mist,190,2013-01-14 07:42:00
2:46 AM,46.4,46.4,100,30.00,1.2,South,9.2,-,N/A,,Overcast,190,2013-01-14 07:46:00
2:47 AM,46.4,46.4,100,30.00,1.2,South,8.1,-,N/A,,Overcast,190,2013-01-14 07:47:00
2:49 AM,46.4,46.4,100,30.00,1.5,South,9.2,-,N/A,,Overcast,190,2013-01-14 07:49:00
2:51 AM,46.4,46.4,100,30.00,1.8,South,9.2,-,N/A,,Overcast,190,2013-01-14 07:51:00
2:52 AM,46.4,46.4,100,30.00,2.0,SSW,8.1,-,N/A,,Overcast,200,2013-01-14 07:52:00
2:55 AM,46.2,46.0,99,30.00,2.5,SSW,9.2,-,N/A,,Overcast,200,2013-01-14 07:55:00
3:14 AM,46.4,46.4,100,29.98,5.0,South,8.1,-,N/A,,Overcast,190,2013-01-14 08:14:00
3:22 AM,46.4,46.4,100,29.96,6.0,South,8.1,-,N/A,,Overcast,180,2013-01-14 08:22:00
3:55 AM,46.4,46.2,99,29.98,10.0,South,6.9,-,N/A,,Overcast,190,2013-01-14 08:55:00
4:50 AM,46.4,46.4,100,29.95,2.5,South,9.2,-,N/A,,Overcast,180,2013-01-14 09:50:00
4:55 AM,46.8,46.4,99,29.95,2.5,South,10.4,-,N/A,,Overcast,180,2013-01-14 09:55:00
4:57 AM,46.4,46.4,100,29.95,3.0,South,10.4,-,N/A,,Overcast,180,2013-01-14 09:57:00
5:18 AM,46.4,46.4,100,29.97,7.0,SSW,6.9,-,N/A,Rain,Light Rain,200,2013-01-14 10:18:00
5:39 AM,46.4,46.4,100,29.95,10.0,South,9.2,-,N/A,,Overcast,180,2013-01-14 10:39:00
5:47 AM,46.4,46.4,100,29.95,8.0,South,9.2,-,N/A,,Light Drizzle,180,2013-01-14 10:47:00
5:55 AM,47.1,46.8,99,29.90,6.0,SSE,15.0,-,0.00,,Light Drizzle,150,2013-01-14 10:55:00
6:00 AM,46.4,46.4,100,29.90,1.5,South,16.1,-,N/A,,Light Drizzle,170,2013-01-14 11:00:00
6:20 AM,48.2,48.2,100,29.93,6.0,NW,11.5,36.8,N/A,,Light Drizzle,310,2013-01-14 11:20:00
6:38 AM,48.2,48.2,100,29.94,4.0,West,12.7,-,N/A,,Overcast,280,2013-01-14 11:38:00
6:55 AM,47.5,47.3,99,29.95,1.2,West,6.9,-,0.02,,Overcast,260,2013-01-14 11:55:00
7:07 AM,46.4,46.4,100,29.96,1.2,SW,5.8,-,N/A,,Overcast,220,2013-01-14 12:07:00
7:14 AM,46.4,46.4,100,29.97,1.2,SSW,6.9,-,N/A,,Overcast,210,2013-01-14 12:14:00
7:16 AM,46.4,46.4,100,29.97,1.2,SSW,6.9,-,N/A,,Overcast,200,2013-01-14 12:16:00
7:17 AM,46.4,46.4,100,29.96,0.8,South,5.8,-,N/A,,Mist,190,2013-01-14 12:17:00
7:38 AM,46.4,46.4,100,29.95,1.0,SSE,10.4,-,N/A,,Mist,160,2013-01-14 12:38:00
7:42 AM,46.4,46.4,100,29.96,1.0,South,10.4,-,N/A,,Overcast,170,2013-01-14 12:42:00
7:44 AM,46.4,46.4,100,29.96,1.8,South,9.2,-,N/A,,Overcast,180,2013-01-14 12:44:00
7:55 AM,47.5,47.3,99,29.97,2.0,South,4.6,-,N/A,,Overcast,180,2013-01-14 12:55:00
8:17 AM,48.2,46.4,93,29.99,2.0,SSW,4.6,-,N/A,,Overcast,200,2013-01-14 13:17:00
8:32 AM,46.4,46.4,100,29.99,2.0,South,5.8,-,N/A,,Overcast,190,2013-01-14 13:32:00
8:55 AM,48.2,48.0,99,30.01,3.0,SSW,4.6,-,N/A,,Overcast,210,2013-01-14 13:55:00
9:15 AM,48.2,48.2,100,30.03,3.0,SW,4.6,-,N/A,,Overcast,230,2013-01-14 14:15:00
9:55 AM,48.4,48.2,99,30.04,3.0,SSW,5.8,-,N/A,,Overcast,200,2013-01-14 14:55:00
10:16 AM,50.0,50.0,100,30.04,10.0,South,3.5,-,N/A,,Mostly Cloudy,190,2013-01-14 15:16:00
10:35 AM,50.0,50.0,100,30.03,10.0,SSW,6.9,-,N/A,,Mostly Cloudy,210,2013-01-14 15:35:00
10:55 AM,50.2,49.8,99,30.02,10.0,SSW,5.8,-,N/A,,Clear,210,2013-01-14 15:55:00
11:55 AM,54.0,46.4,76,30.04,10.0,West,17.3,-,N/A,,Clear,280,2013-01-14 16:55:00
12:55 PM,52.2,38.5,60,30.07,10.0,WNW,18.4,-,N/A,,Clear,300,2013-01-14 17:55:00
1:55 PM,51.6,32.0,47,30.10,10.0,NW,17.3,24.2,N/A,,Clear,310,2013-01-14 18:55:00
2:55 PM,49.6,29.8,47,30.12,10.0,West,15.0,-,N/A,,Clear,280,2013-01-14 19:55:00
3:55 PM,46.8,28.9,50,30.15,10.0,WNW,9.2,-,N/A,,Clear,290,2013-01-14 20:55:00
4:55 PM,41.5,27.5,57,30.16,10.0,NW,5.8,-,N/A,,Clear,310,2013-01-14 21:55:00
5:55 PM,39.6,27.3,62,30.17,10.0,NW,5.8,-,N/A,,Clear,320,2013-01-14 22:55:00
6:55 PM,38.7,27.3,64,30.19,10.0,NW,8.1,-,N/A,,Clear,310,2013-01-14 23:55:00
7:55 PM,39.2,27.0,62,30.23,10.0,NW,11.5,-,N/A,,Overcast,310,2013-01-15 00:55:00
8:55 PM,37.8,26.4,64,30.25,10.0,NW,9.2,-,N/A,,Scattered Clouds,310,2013-01-15 01:55:00
9:55 PM,37.8,24.3,58,30.25,10.0,NNW,10.4,-,N/A,,Clear,330,2013-01-15 02:55:00
10:55 PM,37.6,23.2,56,30.29,10.0,NW,10.4,-,N/A,,Clear,310,2013-01-15 03:55:00
11:55 PM,36.9,23.5,59,30.28,10.0,NW,5.8,-,N/A,,Scattered Clouds,320,2013-01-15 04:55:00